PDT,Max TemperatureF,Mean TemperatureF,Min TemperatureF,Max Dew PointF,MeanDew PointF,Min DewpointF,Max Humidity, Mean Humidity, Min Humidity, Max Sea Level PressureIn, Mean Sea Level PressureIn, Min Sea Level PressureIn, Max VisibilityMiles, Mean VisibilityMiles, Min VisibilityMiles, Max Wind SpeedMPH, Mean Wind SpeedMPH, Max Gust SpeedMPH,PrecipitationIn, CloudCover, Events, WindDirDegrees
2011-10-1,88,68,47,39,35,30,65,39,13,30.03,29.90,29.84,10,10,10,23,7,29,0.00,0,,229
2011-10-2,87,68,48,40,34,30,54,34,13,29.98,29.90,29.84,10,10,10,22,6,28,0.00,0,,300
2011-10-3,85,64,42,36,32,27,62,37,12,29.91,29.78,29.64,10,10,10,29,11,36,0.00,0,,191
2011-10-4,74,65,56,43,36,31,51,37,22,29.74,29.65,29.59,10,10,10,26,15,36,0.00,2,,168
2011-10-5,59,51,43,49,38,22,100,65,30,29.66,29.57,29.51,10,8,2,29,12,39,0.74,5,Rain,157
2011-10-6,60,48,36,33,29,22,79,53,26,30.01,29.81,29.66,10,10,10,26,8,33,T,3,,338
2011-10-7,69,52,35,33,30,27,76,49,22,30.11,30.04,29.96,10,10,10,21,10,26,0.00,0,,340
2011-10-8,72,56,39,34,31,27,76,48,19,30.12,30.04,29.95,10,10,10,20,6,23,0.00,0,,292
2011-10-9,71,53,34,36,33,30,82,53,23,30.05,29.98,29.87,10,10,10,13,5,17,0.00,0,,300
2011-10-10,72,55,38,44,36,31,85,54,23,29.96,29.92,29.85,10,10,10,9,4,14,0.00,2,,305
2011-10-11,83,61,39,41,34,21,86,50,13,30.03,29.96,29.88,10,10,5,12,5,17,0.00,0,,335
2011-10-12,86,63,40,37,29,24,66,39,11,30.12,30.04,29.96,10,10,10,14,5,32,0.00,0,,287
2011-10-13,86,64,42,36,33,29,67,40,13,30.07,29.98,29.86,10,10,10,14,5,17,0.00,0,,328
2011-10-14,86,64,41,36,33,26,65,38,11,29.99,29.92,29.85,10,10,10,17,6,24,0.00,0,,309
2011-10-15,86,64,42,35,33,30,70,42,13,29.99,29.92,29.83,10,10,10,17,6,23,0.00,0,,308
2011-10-16,86,64,41,40,33,24,67,39,11,30.05,29.98,29.93,10,10,10,15,5,21,0.00,0,,339
2011-10-17,81,64,47,41,36,29,59,37,15,30.21,30.13,30.06,10,10,10,17,5,20,0.00,0,,302
2011-10-18,84,62,39,37,33,28,70,43,15,30.21,30.08,29.97,10,10,10,17,6,22,0.00,0,,267
2011-10-19,81,60,38,32,28,18,62,36,9,29.99,29.93,29.84,10,10,10,12,4,17,0.00,0,,313
2011-10-20,81,59,37,35,30,24,70,42,13,30.07,30.00,29.91,10,10,10,15,6,20,0.00,0,,306
2011-10-21,81,57,33,30,26,14,64,36,8,30.18,30.12,30.06,10,10,10,10,5,18,0.00,0,,317
2011-10-22,83,59,35,32,25,19,64,37,10,30.27,30.16,30.07,10,10,10,10,4,13,0.00,0,,318
2011-10-23,82,59,36,27,24,21,56,34,11,30.17,30.05,29.93,10,10,10,17,6,22,0.00,0,,302
2011-10-24,80,60,40,29,25,22,54,33,12,30.03,29.95,29.86,10,10,10,15,7,18,0.00,0,,350
2011-10-25,76,56,36,30,26,20,70,42,14,30.01,29.90,29.78,10,10,10,30,11,40,0.00,1,,346
2011-10-26,63,48,33,19,4,-8,34,21,7,30.19,30.10,30.02,10,10,10,29,14,37,0.00,0,,355
2011-10-27,66,45,24,13,7,0,50,29,7,30.18,30.11,30.02,10,10,10,10,5,15,0.00,0,,306
2011-10-28,70,48,26,14,8,0,50,28,6,30.24,30.16,30.09,10,10,10,12,5,13,0.00,0,,316
2011-10-29,78,54,29,17,14,8,41,25,9,30.25,30.15,30.04,10,10,10,14,5,20,0.00,0,,314
2011-10-30,76,53,30,21,19,16,59,35,11,30.21,30.14,30.06,10,10,10,14,6,20,0.00,0,,306
2011-10-31,77,54,30,21,18,15,56,33,10,30.15,30.03,29.91,10,10,10,13,6,16,0.00,0,,301